When you browse on this site, cookies collect data to enhance your experience and personalize the content and advertising you see.
Visit our Privacy Policy to learn more. By continuing to use the site, you agree to this use of cookies and data.
EN

Hourly Weather Kipungo

Today, 9 July, Thursday

Time Temperature Precipitation Wind Pressure Humidity
00:00 +12°C° 0 mm 1 mps 652 mmHg 28%
01:00 +9°C° 0 mm 0 mps 652 mmHg 30%
02:00 +9°C° 0 mm 0 mps 651 mmHg 31%
03:00 +8°C° 0 mm 0 mps 651 mmHg 32%
04:00 +8°C° 0 mm 0 mps 651 mmHg 34%
05:00 +8°C° 0 mm 0 mps 651 mmHg 34%
06:00 +8°C° 0 mm 0 mps 651 mmHg 35%
07:00 +9°C° 0 mm 0 mps 652 mmHg 33%
08:00 +14°C° 0 mm 1 mps 653 mmHg 27%
09:00 +20°C° 0 mm 1 mps 654 mmHg 20%
10:00 +25°C° 0 mm 1 mps 655 mmHg 14%
11:00 +28°C° 0 mm 1 mps 655 mmHg 12%
12:00 +30°C° 0 mm 2 mps 655 mmHg 9%
13:00 +32°C° 0 mm 2 mps 655 mmHg 7%
14:00 +32°C° 0 mm 2 mps 655 mmHg 7%
15:00 +33°C° 0 mm 3 mps 654 mmHg 7%
16:00 +31°C° 0 mm 3 mps 654 mmHg 6%
17:00 +27°C° 0 mm 3 mps 653 mmHg 9%
18:00 +22°C° 0 mm 3 mps 653 mmHg 12%
19:00 +19°C° 0 mm 2 mps 653 mmHg 14%
20:00 +17°C° 0 mm 2 mps 653 mmHg 18%
21:00 +15°C° 0 mm 2 mps 653 mmHg 22%
22:00 +14°C° 0 mm 2 mps 653 mmHg 25%
23:00 +13°C° 0 mm 2 mps 653 mmHg 30%

Tomorrow, 10 July, Friday

Time Temperature Precipitation Wind Pressure Humidity
00:00 +12°C° 0 mm 1 mps 652 mmHg 34%
01:00 +11°C° 0 mm 1 mps 652 mmHg 39%
02:00 +11°C° 0 mm 1 mps 652 mmHg 39%
03:00 +10°C° 0 mm 1 mps 651 mmHg 40%
04:00 +10°C° 0 mm 1 mps 651 mmHg 40%
05:00 +10°C° 0 mm 1 mps 652 mmHg 40%
06:00 +10°C° 0 mm 1 mps 652 mmHg 39%
07:00 +10°C° 0 mm 1 mps 652 mmHg 38%
08:00 +15°C° 0 mm 1 mps 654 mmHg 31%
09:00 +22°C° 0 mm 1 mps 655 mmHg 23%
10:00 +27°C° 0 mm 1 mps 656 mmHg 16%
11:00 +29°C° 0 mm 1 mps 656 mmHg 15%
12:00 +31°C° 0 mm 2 mps 656 mmHg 14%
13:00 +34°C° 0 mm 2 mps 656 mmHg 13%
14:00 +33°C° 0 mm 3 mps 655 mmHg 13%
15:00 +33°C° 0 mm 3 mps 655 mmHg 13%
16:00 +32°C° 0 mm 4 mps 654 mmHg 13%
17:00 +28°C° 0 mm 4 mps 654 mmHg 18%
18:00 +24°C° 0 mm 3 mps 653 mmHg 22%
19:00 +20°C° 0 mm 3 mps 653 mmHg 27%
20:00 +18°C° 0 mm 2 mps 653 mmHg 30%
21:00 +16°C° 0 mm 2 mps 653 mmHg 34%
22:00 +14°C° 0 mm 1 mps 653 mmHg 37%
23:00 +14°C° 0 mm 1 mps 653 mmHg 40%

Day after tomorrow, 11 July, Saturday

Time Temperature Precipitation Wind Pressure Humidity
00:00 +13°C° 0 mm 1 mps 652 mmHg 42%
01:00 +12°C° 0 mm 1 mps 652 mmHg 44%
02:00 +11°C° 0 mm 1 mps 652 mmHg 46%
03:00 +10°C° 0 mm 1 mps 652 mmHg 48%
04:00 +10°C° 0 mm 1 mps 651 mmHg 50%
05:00 +9°C° 0 mm 0 mps 652 mmHg 49%
06:00 +9°C° 0 mm 0 mps 652 mmHg 49%
07:00 +9°C° 0 mm 0 mps 653 mmHg 48%
08:00 +14°C° 0 mm 1 mps 654 mmHg 38%
09:00 +20°C° 0 mm 1 mps 655 mmHg 27%
10:00 +25°C° 0 mm 1 mps 656 mmHg 16%
11:00 +28°C° 0 mm 1 mps 656 mmHg 14%
12:00 +31°C° 0 mm 1 mps 656 mmHg 12%
13:00 +34°C° 0 mm 1 mps 656 mmHg 10%
14:00 +33°C° 0 mm 1 mps 656 mmHg 11%
15:00 +33°C° 0 mm 1 mps 655 mmHg 11%
16:00 +32°C° 0 mm 1 mps 654 mmHg 11%
17:00 +29°C° 0 mm 1 mps 654 mmHg 14%
18:00 +25°C° 0 mm 1 mps 654 mmHg 18%
19:00 +22°C° 0 mm 1 mps 653 mmHg 21%
20:00 +19°C° 0 mm 2 mps 653 mmHg 22%
21:00 +18°C° 0 mm 2 mps 654 mmHg 23%
22:00 +16°C° 0 mm 2 mps 654 mmHg 24%
23:00 +15°C° 0 mm 2 mps 654 mmHg 26%

12 July, Sunday

Time Temperature Precipitation Wind Pressure Humidity
00:00 +14°C° 0 mm 1 mps 653 mmHg 28%
01:00 +13°C° 0 mm 1 mps 653 mmHg 29%
02:00 +13°C° 0 mm 1 mps 653 mmHg 31%
03:00 +12°C° 0 mm 1 mps 653 mmHg 32%
04:00 +12°C° 0 mm 1 mps 652 mmHg 34%
05:00 +11°C° 0 mm 1 mps 653 mmHg 34%
06:00 +11°C° 0 mm 1 mps 653 mmHg 35%
07:00 +11°C° 0 mm 1 mps 654 mmHg 36%
08:00 +16°C° 0 mm 1 mps 655 mmHg 29%
09:00 +20°C° 0 mm 2 mps 656 mmHg 23%
10:00 +25°C° 0 mm 3 mps 656 mmHg 16%
11:00 +28°C° 0 mm 3 mps 656 mmHg 15%
12:00 +30°C° 0 mm 3 mps 656 mmHg 13%
13:00 +34°C° 0 mm 3 mps 656 mmHg 12%
14:00 +34°C° 0 mm 3 mps 655 mmHg 12%
15:00 +34°C° 0 mm 2 mps 655 mmHg 12%
16:00 +33°C° 0 mm 1 mps 655 mmHg 11%
17:00 +29°C° 0 mm 1 mps 654 mmHg 15%
18:00 +26°C° 0 mm 2 mps 654 mmHg 18%
19:00 +21°C° 0 mm 2 mps 654 mmHg 22%
20:00 +20°C° 0 mm 2 mps 654 mmHg 24%
21:00 +19°C° 0 mm 2 mps 654 mmHg 25%
22:00 +17°C° 0 mm 2 mps 654 mmHg 27%
23:00 +16°C° 0 mm 2 mps 654 mmHg 30%

13 July, Monday

Time Temperature Precipitation Wind Pressure Humidity
00:00 +15°C° 0 mm 1 mps 653 mmHg 33%
01:00 +13°C° 0 mm 1 mps 653 mmHg 36%
02:00 +13°C° 0 mm 1 mps 653 mmHg 37%
03:00 +12°C° 0 mm 1 mps 652 mmHg 39%
04:00 +12°C° 0 mm 1 mps 652 mmHg 40%
05:00 +11°C° 0 mm 1 mps 652 mmHg 41%
06:00 +11°C° 0 mm 1 mps 653 mmHg 42%
07:00 +11°C° 0 mm 1 mps 653 mmHg 43%
08:00 +16°C° 0 mm 1 mps 654 mmHg 35%
09:00 +21°C° 0 mm 2 mps 655 mmHg 27%
10:00 +26°C° 0 mm 3 mps 656 mmHg 19%
11:00 +28°C° 0 mm 3 mps 656 mmHg 16%
12:00 +31°C° 0 mm 3 mps 655 mmHg 14%
13:00 +34°C° 0 mm 2 mps 655 mmHg 12%
14:00 +34°C° 0 mm 2 mps 655 mmHg 11%
15:00 +34°C° 0 mm 2 mps 654 mmHg 10%
16:00 +34°C° 0 mm 2 mps 654 mmHg 10%
17:00 +29°C° 0 mm 2 mps 653 mmHg 13%
18:00 +26°C° 0 mm 2 mps 653 mmHg 16%
19:00 +21°C° 0 mm 2 mps 653 mmHg 19%
20:00 +20°C° 0 mm 2 mps 653 mmHg 20%
21:00 +19°C° 0 mm 2 mps 653 mmHg 22%
22:00 +18°C° 0 mm 3 mps 653 mmHg 23%
23:00 +16°C° 0 mm 2 mps 653 mmHg 26%

14 July, Tuesday

Time Temperature Precipitation Wind Pressure Humidity
00:00 +14°C° 0 mm 2 mps 653 mmHg 29%
01:00 +13°C° 0 mm 1 mps 652 mmHg 32%
02:00 +12°C° 0 mm 1 mps 652 mmHg 33%
03:00 +11°C° 0 mm 1 mps 651 mmHg 34%
04:00 +9°C° 0 mm 0 mps 651 mmHg 36%
05:00 +9°C° 0 mm 0 mps 652 mmHg 35%
06:00 +9°C° 0 mm 0 mps 652 mmHg 33%
07:00 +9°C° 0 mm 0 mps 653 mmHg 32%
08:00 +15°C° 0 mm 1 mps 654 mmHg 26%
09:00 +20°C° 0 mm 2 mps 655 mmHg 20%
10:00 +26°C° 0 mm 3 mps 656 mmHg 13%
11:00 +28°C° 0 mm 3 mps 656 mmHg 12%
12:00 +30°C° 0 mm 3 mps 655 mmHg 11%
13:00 +33°C° 0 mm 3 mps 655 mmHg 10%
14:00 +33°C° 0 mm 3 mps 655 mmHg 10%
15:00 +32°C° 0 mm 2 mps 654 mmHg 10%
16:00 +32°C° 0 mm 2 mps 654 mmHg 9%
17:00 +29°C° 0 mm 2 mps 653 mmHg 12%
18:00 +25°C° 0 mm 2 mps 653 mmHg 15%
19:00 +21°C° 0 mm 2 mps 653 mmHg 18%
20:00 +19°C° 0 mm 2 mps 653 mmHg 18%
21:00 +18°C° 0 mm 2 mps 653 mmHg 19%
22:00 +17°C° 0 mm 2 mps 653 mmHg 20%
23:00 +15°C° 0 mm 2 mps 653 mmHg 22%
Show more